Regional Weather Roundup
Issued by NWS Wakefield, VA

Home | Current Version | Previous Version | Text Only | Print | Product List | Glossary On
Versions: 1 2 3 4 5 6 7 8 9 10 11 12 13 14 15 16 17 18 19 20 21 22 23 24 25 26 27 28 29 30 31 32 33 34 35 36 37 38 39 40 41 42 43 44 45 46 47 48 49 50
000
ASUS41 KAKQ 241415
RWRAKQ

REGIONAL WEATHER ROUNDUP
NATIONAL WEATHER SERVICE WAKEFIELD VA
1000 AM EDT SUN JUL 24 2016

Note: "fair" indicates few or no clouds below 12,000 feet with no
significant weather and/or obstructions to visibility. * = Denotes
station may not report precipitation (e.g., rain,snow,etc.),
thunder or fog.

VAZ042-051-052>054-056-241500-
NORTHERN VIRGINIA

CITY           SKY/WX    TMP DP  RH WIND       PRES   REMARKS
WASH NATIONAL  FAIR      88  67  49 NE6       30.00S
DULLES         FAIR      86  64  47 E8        30.01S
FORT BELVOIR   FAIR      88  65  46 VRB3      30.00S
QUANTICO       PTSUNNY   87  69  54 E5        30.00S
FREDERICKSBRG* FAIR      86  72  63 CALM      29.99S
STAFFORD*      FAIR      87  68  53 E5        30.04S
WARRENTON      FAIR      87  64  46 NE6       30.01F
CULPEPER*      FAIR      87  70  58 CALM      30.01F
MANASSAS*      SUNNY     88  66  48 E6        30.01S
LEESBURG*      FAIR      88  66  48 E3        30.02F
WINCHESTER     PTSUNNY   84  68  58 SE3       30.03S
FRONT ROYAL*   FAIR      82  72  69 CALM      30.03S
LURAY*         FAIR      81  73  78 CALM      30.04F
$$

VAZ048-049-060>072-079>083-241500-
CENTRAL AND SOUTH CENTRAL VIRGINIA

CITY           SKY/WX    TMP DP  RH WIND       PRES   REMARKS
RICHMOND       PTSUNNY   88  74  63 N3        29.99S HX  96
CHESTERFIELD*  FAIR      88  68  51 NW3       30.01S
PETERSBURG*    FAIR      88  76  68 CALM      30.00S HX  99
HANOVER        FAIR      88  73  61 CALM      30.01S HX  95
TAPPAHANNOCK*  FAIR      88  73  61 N3        30.00S HX  96
QUINTON*       FAIR      85  77  77 CALM      29.98S HX  96
CHARLOTTSVILLE FAIR      88  70  55 E5        30.02F
GORDONSVILLE*  FAIR      87  71  58 NE5       30.01S
ORANGE*        NOT AVBL
LOUISA*        FAIR      90  75  62 NE5       30.00F HX 100
BUMPASS*       FAIR      85  74  70 CALM      30.01S
FARMVILLE*     FAIR      89  73  60 N5        30.00F HX  97
CREWE*         FAIR      86  76  72 NW5       30.01S HX  97
FORT PICKETT*  FAIR      85  78  80 CALM      30.01S HX  97
CHASE CITY*    FAIR      84  77  80 CALM      30.03R
CLARKSVILLE*   FAIR      84  77  79 SW3       30.02S
SOUTH HILL*    FAIR      85  76  74 CALM      30.07S HX  95
LAWRENCEVILLE* FAIR      85  77  77 CALM      30.01S HX  96
EMPORIA*       FAIR      86  77  74 S3        30.01S HX  97
$$

VAZ088>098-241500-
SOUTHEAST VIRGINIA

CITY           SKY/WX    TMP DP  RH WIND       PRES   REMARKS
NORFOLK        FAIR      88  75  65 VRB5      29.97F HX  97
VIRGINIA BEACH PTSUNNY   91  75  59 SW9       29.97F HX 101
NORFOLK NAVAL  PTSUNNY   87  75  67 W8        29.99F HX  96
WEST POINT*    FAIR      85  75  72 CALM      29.99S
SALUDA*        FAIR      85  77  78 NW6       29.98R HX  96
NEWPORT NEWS   FAIR      87  77  72 W6        29.98F HX  99
LANGLEY AFB    FAIR      87  77  74 SW6       29.97F HX  98
FORT EUSTIS    FAIR      88  78  72 W5        29.97F HX 101
WILLIAMSBURG*  FAIR      88  79  74 W3        29.99S HX 102
HR EXEC AP*    FAIR      86  77  74 W6        30.00F HX  97
FRANKLIN*      FAIR      85  76  72 S5        30.00S
US460-WAKEFLD  FAIR      87  76  69 CALM      29.99S HX  97
$$

VAZ020-022-025-037-045-241500-
WEST CENTRAL AND SOUTHWEST VIRGINIA

CITY           SKY/WX    TMP DP  RH WIND       PRES   REMARKS
STAUNTON*      FAIR      80  71  73 CALM      30.08S
WAYNESBORO*    FAIR      83  71  67 CALM      30.07F
HOT SPRINGS VA NOT AVBL
LYNCHBURG      FAIR      87  71  58 NE5       30.05S
DANVILLE       FAIR      84  75  74 SW3       30.03S
SOUTH BOSTON*  FAIR      85  78  79 SW3       30.02S HX  95
MARTINSVILLE   FAIR      84  71  64 CALM      30.08S
ROANOKE        FAIR      84  71  65 VRB3      30.08S
BLACKSBURG     FAIR      78  71  79 CALM      30.16S
DUBLIN*        FAIR      80  71  73 CALM      30.15S
MARION*        FAIR      80  71  74 CALM      30.18F
HILLSVILLE*    FAIR      77  70  79 CALM      30.16S
RICHLANDS*     FAIR      76  73  89 CALM      30.16S
WISE*          FAIR      79  63  57 SW6       30.17S
ABINGDON*      FAIR      80  70  72 CALM      30.14S
$$

MDZ021>025-VAZ099-100-241500-
SOUTHERN MARYLAND AND THE DELMARVA PENINSULA

CITY           SKY/WX    TMP DP  RH WIND       PRES   REMARKS
PATUXENT RIVER PTSUNNY   86  69  56 E6        29.98S
BAY BRIDGE APT SUNNY     86  68  54 E3        29.99S
LEONARDTOWN    SUNNY     86  64  48 E6        30.01R
DOVER          SUNNY     85  71  63 NE8       29.98R
GEORGETOWN     SUNNY     88  68  51 NE7       29.99R
EASTON         SUNNY     86  72  62 E5        30.03R
CAMBRIDGE      SUNNY     86  66  51 E6        29.98R
SALISBURY      SUNNY     87  70  56 E6        29.98R
OCEAN CITY     SUNNY     84  68  58 NE10      29.97F
WALLOPS ISLAND FAIR      86  77  74 NE8       29.98R HX  97
ACCOMACK*      FAIR      88  77  70 CALM      29.98R HX 100
$$

NCZ012>017-030>032-241500-
NORTH CENTRAL AND EASTERN NORTH CAROLINA

CITY           SKY/WX    TMP DP  RH WIND       PRES   REMARKS
ROANOKE RAPIDS FAIR      84  77  79 SW3       30.01S
RALEIGH        PTSUNNY   85  75  72 SW6       30.03S
ELIZABETH CITY SUNNY     85  75  72 SW7       30.00F
AHOSKIE*       SUNNY     84  76  79 CALM      30.01S
EDENTON*       SUNNY     85  73  68 W5        30.02S
CURRITUCK*     SUNNY     87  75  68 SW8       30.00S HX  96
KILL DEVIL HLS SUNNY     87  75  67 W9        30.00S HX  96
MANTEO           N/A     85  78  80 W6        30.02S HX  96
CAPE HATTERAS  PTSUNNY   83  77  82 SW9       30.03S
TARBORO*       FAIR      85  76  74 CALM      30.03S HX  95
GOLDSBORO      SUNNY     85  80  85 VRB1      30.01S HX  99
WASHINGTON     SUNNY     84  77  77 SW3       30.02S
GREENVILLE     SUNNY     86  77  74 CALM      30.04S HX  97
NEW BERN       SUNNY     86  76  71 W6        30.04S HX  96
WILMINGTON     SUNNY     86  76  71 SW12      30.03S HX  96
$$

VAZ048-241500-
ELSEWHERE

CITY           SKY/WX    TMP DP  RH WIND       PRES   REMARKS
HARRISBURG PA  PTSUNNY   85  64  49 VRB3      30.00F
BALTIMORE      MOSUNNY   87  63  44 E6        29.99F
ANNAPOLIS      SUNNY     86  70  58 E3        29.98F
ANDREWS AFB    FAIR      86  67  53 E7        30.00R
PHILADELPHIA   MOSUNNY   87  61  41 VRB5      30.00R
GREENSBORO     CLOUDY    85  72  65 W6        30.05S
ROCKY MOUNT    SUNNY     84  76  76 W5        30.03R
$$

VAZ100-241500-
MARINE

STATION/POSITION TIME  TEMP    WIND        PRES    WAVE   SWELL
                       AIR SEA DIR/SP/G            HT/PER HT/PER
                 (UTC) (F)     (DEG/KT/KT) (MB)    (FT/S) (FT/S)
BRANDYWINE LGT   1300   81      40/ 12/ 13   N/A
CAPE MAY NJ      1300   83 73   60/  6/  8 1014.6R
LEWES DE         1300   79 74   40/  6/  8 1014.9R
OCEAN-CITY-INLET 1300   82 77   40/  5/  7 1015.3R
WACHAPREAGUE VA  1300   87 85  270/  4/  8 1014.9R
THOMAS POINT MD  1400   81 82   10/  4/  5 1017.0R
GOOSES REEF MD   1400   84 84   40/  4/  6 1016.6R   1/ 2
COVE POINT MD    1300   83      70/  3/  5 1015.8R
SOLOMONS ISLAND  1300   83 84   70/  6/  8   N/A
BISHOPS HEAD MD  1300   84 85   60/  7/  9 1015.1R
PINEY POINT MD   1300          110/  4/  4   N/A
POTOMAC MD       1400   84 85   50/  4/  6 1014.2R   0
CAMBRIDGE MD     1300   83 86   70/  5/  7 1014.3S
LEWISETTA VA     1300   85 85   60/  1/  2 1014.7R
RAPPAHANNOCK LGT 1300          260/ 10/ 10 1015.6R
STINGRAY PT      1400   84 85  250/  6/  8 1015.5S   1
YORK RVR RNG VA  1300   83     270/ 10/ 11 1014.7R
YORKTOWN VA      1300   83 83  260/  8/  9 1014.9R
JAMESTOWN VA     1400   83 87  310/  4/  6   N/A     0
DOMINION TERM VA 1300   82     320/  5/  6 1015.6R
KIPTOPEKE VA     1300      81  280/  7/ 10   N/A
CHES BAY BRIDGE  1300   82 80  240/ 10/ 11 1015.2R
CAPE HENRY VA    1300   84     240/ 10/ 12   N/A
WILLOUBY STN VA  1300   81     260/ 10/ 11   N/A
CAPE HENRY BUOY  1312      75                N/A     2/ 8
1ST LANDING BUOY 1400   83 81  270/  4/  6 1014.8F
CAPE CHARLES BUO 1326      67                N/A     2/ 8
OFFSHORE WE BUOY 1321      81                N/A     3/ 4
64NM E OF VA BCH 1350   81 81  250/ 12/ 16 1015.2R   3/ 5   2/ 9
DUCK PIER NC     1300   82 60  260/ 12/ 15 1015.4R
44100 DUCK FRF   1305      78                N/A     2/ 8
44056 DUCK FRF   1311      67                N/A     1/ 8
OREGON INLET NC  1300   81 84  240/ 10/ 11 1016.1S
HATTERAS NC      1300   84 82  220/  6/  9 1016.5R
DIAMOND SHLS NC  1350   84 86  260/ 10/ 12 1017.0R   3/ 9   2/ 9
CAPE LOOKOUT NC  1300   85     240/  5/  7 1016.8R
$$



USA.gov is the U.S. government's official web portal to all federal, state and local government web resources and services.